NOZ393 ENAN-ENGM

Flight info

Callsign NOZ393
Flight time 1h 33m
Altitude 36000
Route ABTUS DCT SOMUB/N0441F350 DCT ABUNO DCT INREX
Aircraft B738/M-SDE2E3FGHIRWXY/LB1

Departure

Time 2026-04-15 11:21
Airport Andøya Airport, Andenes (ENAN)

Arrival

Time 2026-04-15 12:54
Airport Oslo-Gardermoen International Airport (ENGM)
Time Latitude Longitude Altitude Speed Heading
2026-04-15 11:05 69.30992 16.12338 16 ft 0 kts 70°
2026-04-15 11:18 69.30992 16.12339 16 ft 0 kts 73°
2026-04-15 11:19 69.30985 16.12347 16 ft 2 kts 173°
2026-04-15 11:19 69.30963 16.12288 18 ft 10 kts 224°
2026-04-15 11:19 69.30877 16.12186 17 ft 14 kts 194°
2026-04-15 11:19 69.30780 16.12145 17 ft 14 kts 188°
2026-04-15 11:20 69.30704 16.12080 19 ft 11 kts 207°
2026-04-15 11:20 69.30543 16.12258 17 ft 61 kts 149°
2026-04-15 11:20 69.29939 16.13259 27 ft 137 kts 150°
2026-04-15 11:20 69.28997 16.14738 536 ft 162 kts 154°
2026-04-15 11:21 69.27967 16.16278 1490 ft 172 kts 155°
2026-04-15 11:21 69.26766 16.17220 2097 ft 193 kts 188°
2026-04-15 11:21 69.25418 16.16021 2447 ft 213 kts 202°
2026-04-15 11:21 69.23975 16.14488 2871 ft 233 kts 202°
2026-04-15 11:22 69.22410 16.12865 3554 ft 244 kts 201°
2026-04-15 11:22 69.20806 16.11240 4488 ft 246 kts 200°
2026-04-15 11:22 69.19175 16.09623 5393 ft 251 kts 199°
2026-04-15 11:22 69.17523 16.08004 6312 ft 252 kts 199°
2026-04-15 11:23 69.15860 16.06385 7225 ft 254 kts 199°
2026-04-15 11:23 69.14179 16.04763 8092 ft 257 kts 200°
2026-04-15 11:23 69.12481 16.03139 8974 ft 259 kts 200°
2026-04-15 11:23 69.10767 16.01508 9827 ft 262 kts 201°
2026-04-15 11:24 69.09028 15.99861 10617 ft 267 kts 201°
2026-04-15 11:24 69.07199 15.98129 10882 ft 290 kts 200°
2026-04-15 11:24 69.05219 15.96262 11181 ft 309 kts 200°
2026-04-15 11:24 69.03155 15.94328 11849 ft 315 kts 200°
2026-04-15 11:25 69.01099 15.92410 12711 ft 316 kts 200°
2026-04-15 11:25 68.99016 15.90473 13569 ft 317 kts 200°
2026-04-15 11:25 68.96919 15.88528 14349 ft 319 kts 199°
2026-04-15 11:25 68.94802 15.86565 14966 ft 323 kts 199°
2026-04-15 11:26 68.92655 15.84580 15658 ft 326 kts 199°
2026-04-15 11:26 68.90490 15.82582 16374 ft 330 kts 199°
2026-04-15 11:26 68.88306 15.80571 17048 ft 333 kts 199°
2026-04-15 11:26 68.86093 15.78537 17697 ft 337 kts 199°
2026-04-15 11:27 68.83854 15.76483 18373 ft 340 kts 199°
2026-04-15 11:27 68.81599 15.74418 18997 ft 343 kts 199°
2026-04-15 11:27 68.79323 15.72340 19546 ft 347 kts 199°
2026-04-15 11:27 68.77014 15.70235 20077 ft 351 kts 199°
2026-04-15 11:28 68.74683 15.68118 20609 ft 356 kts 199°
2026-04-15 11:28 68.72322 15.65976 21145 ft 359 kts 199°
2026-04-15 11:28 68.69933 15.63811 21652 ft 363 kts 200°
2026-04-15 11:28 68.67521 15.61630 22135 ft 367 kts 199°
2026-04-15 11:29 68.65083 15.59432 22649 ft 371 kts 199°
2026-04-15 11:29 68.62619 15.57215 23128 ft 375 kts 199°
2026-04-15 11:29 68.60126 15.54977 23558 ft 379 kts 199°
2026-04-15 11:29 68.57610 15.52727 24043 ft 381 kts 199°
2026-04-15 11:30 68.55084 15.50474 24467 ft 384 kts 200°
2026-04-15 11:30 68.52538 15.48206 24902 ft 386 kts 200°
2026-04-15 11:30 68.49976 15.45930 25303 ft 389 kts 200°
2026-04-15 11:30 68.47398 15.43644 25719 ft 391 kts 200°
2026-04-15 11:31 68.44801 15.41347 26069 ft 395 kts 200°
2026-04-15 11:31 68.42176 15.39030 26430 ft 398 kts 200°
2026-04-15 11:31 68.39533 15.36702 26828 ft 400 kts 200°
2026-04-15 11:31 68.36878 15.34372 27227 ft 402 kts 200°
2026-04-15 11:32 68.34208 15.32034 27609 ft 404 kts 200°
2026-04-15 11:32 68.31526 15.29690 27949 ft 407 kts 200°
2026-04-15 11:32 68.28825 15.27335 28283 ft 409 kts 200°
2026-04-15 11:32 68.26107 15.24970 28637 ft 411 kts 200°
2026-04-15 11:33 68.23371 15.22597 28968 ft 414 kts 200°
2026-04-15 11:33 68.20623 15.20220 29287 ft 416 kts 200°
2026-04-15 11:33 68.17858 15.17850 29621 ft 418 kts 200°
2026-04-15 11:33 68.15074 15.15486 29890 ft 421 kts 200°
2026-04-15 11:34 68.12268 15.13112 30113 ft 425 kts 200°
2026-04-15 11:34 68.09442 15.10729 30389 ft 427 kts 200°
2026-04-15 11:34 68.06612 15.08349 30753 ft 426 kts 200°
2026-04-15 11:34 68.03787 15.05979 31129 ft 424 kts 200°
2026-04-15 11:35 68.00969 15.03619 31418 ft 425 kts 200°
2026-04-15 11:35 67.98180 15.01286 31680 ft 426 kts 200°
2026-04-15 11:35 67.95315 14.98895 31985 ft 426 kts 200°
2026-04-15 11:35 67.92518 14.96568 32304 ft 426 kts 200°
2026-04-15 11:36 67.89685 14.94215 32602 ft 427 kts 200°
2026-04-15 11:36 67.86853 14.91870 32873 ft 428 kts 200°
2026-04-15 11:36 67.84010 14.89521 33128 ft 428 kts 200°
2026-04-15 11:36 67.81153 14.87165 33282 ft 432 kts 200°
2026-04-15 11:37 67.78277 14.84799 33531 ft 433 kts 200°
2026-04-15 11:37 67.75402 14.82444 33880 ft 432 kts 200°
2026-04-15 11:37 67.72540 14.80105 34198 ft 431 kts 200°
2026-04-15 11:37 67.69673 14.77768 34430 ft 432 kts 200°
2026-04-15 11:38 67.66798 14.75429 34621 ft 433 kts 200°
2026-04-15 11:38 67.63921 14.73095 34842 ft 433 kts 200°
2026-04-15 11:38 67.61040 14.70764 35070 ft 433 kts 200°
2026-04-15 11:38 67.58160 14.68439 35275 ft 433 kts 200°
2026-04-15 11:39 67.55281 14.66121 35466 ft 434 kts 200°
2026-04-15 11:39 67.52393 14.63801 35665 ft 434 kts 200°
2026-04-15 11:39 67.49496 14.61480 35809 ft 436 kts 199°
2026-04-15 11:39 67.46592 14.59158 35982 ft 437 kts 199°
2026-04-15 11:40 67.43690 14.56846 36207 ft 436 kts 199°
2026-04-15 11:40 67.40788 14.54539 36355 ft 438 kts 199°
2026-04-15 11:40 67.34940 14.49907 36343 ft 439 kts 199°
2026-04-15 11:41 67.29120 14.45325 36343 ft 435 kts 199°
2026-04-15 11:41 67.23349 14.40802 36343 ft 432 kts 199°
2026-04-15 11:42 67.18575 14.37077 36351 ft 431 kts 199°
2026-04-15 11:42 67.12841 14.32621 36352 ft 430 kts 199°
2026-04-15 11:43 67.07108 14.28190 36344 ft 431 kts 199°
2026-04-15 11:43 67.01356 14.23764 36360 ft 432 kts 199°
2026-04-15 11:44 66.95580 14.19343 36349 ft 434 kts 199°
2026-04-15 11:44 66.89783 14.14928 36340 ft 436 kts 199°
2026-04-15 11:45 66.83961 14.10516 36361 ft 438 kts 199°
2026-04-15 11:45 66.78108 14.06103 36362 ft 439 kts 199°
2026-04-15 11:46 66.72234 14.01696 36355 ft 441 kts 199°
2026-04-15 11:46 66.66348 13.97303 36361 ft 441 kts 199°
2026-04-15 11:47 66.60456 13.92926 36361 ft 442 kts 199°
2026-04-15 11:47 66.54562 13.88570 36353 ft 441 kts 199°
2026-04-15 11:48 66.48669 13.84236 36352 ft 441 kts 199°
2026-04-15 11:48 66.42789 13.79933 36355 ft 440 kts 199°
2026-04-15 11:49 66.36914 13.75654 36355 ft 439 kts 199°
2026-04-15 11:49 66.31056 13.71409 36352 ft 439 kts 199°
2026-04-15 11:50 66.25191 13.67179 36329 ft 438 kts 198°
2026-04-15 11:50 66.19343 13.62981 36341 ft 437 kts 198°
2026-04-15 11:51 66.13505 13.58811 36331 ft 437 kts 198°
2026-04-15 11:51 66.07701 13.54684 36337 ft 437 kts 198°
2026-04-15 11:52 66.01855 13.50547 36335 ft 437 kts 198°
2026-04-15 11:52 65.96004 13.46427 36328 ft 438 kts 198°
2026-04-15 11:53 65.90140 13.42318 36338 ft 439 kts 198°
2026-04-15 11:53 65.84264 13.38219 36349 ft 440 kts 198°
2026-04-15 11:54 65.78381 13.34136 36343 ft 440 kts 198°
2026-04-15 11:54 65.72476 13.30055 36348 ft 441 kts 198°
2026-04-15 11:55 65.66559 13.25987 36333 ft 442 kts 198°
2026-04-15 11:55 65.60639 13.21936 36343 ft 442 kts 198°
2026-04-15 11:56 65.54709 13.17898 36353 ft 443 kts 198°
2026-04-15 11:56 65.48770 13.13872 36343 ft 443 kts 198°
2026-04-15 11:57 65.39858 13.07866 36334 ft 444 kts 198°
2026-04-15 11:58 65.33916 13.03885 36340 ft 443 kts 198°
2026-04-15 11:58 65.27983 12.99930 36340 ft 442 kts 198°
2026-04-15 11:59 65.22061 12.96000 36345 ft 442 kts 198°
2026-04-15 11:59 65.16145 12.92092 36344 ft 441 kts 198°
2026-04-15 12:00 65.10233 12.88204 36341 ft 441 kts 198°
2026-04-15 12:00 65.04357 12.84357 36333 ft 441 kts 198°
2026-04-15 12:01 64.98442 12.80503 36340 ft 441 kts 198°
2026-04-15 12:01 64.92524 12.76665 36338 ft 441 kts 197°
2026-04-15 12:02 64.86602 12.72842 36339 ft 442 kts 197°
2026-04-15 12:02 64.80672 12.69031 36332 ft 442 kts 197°
2026-04-15 12:03 64.74735 12.65233 36319 ft 442 kts 197°
2026-04-15 12:03 64.68797 12.61452 36331 ft 442 kts 198°
2026-04-15 12:04 64.62850 12.57682 36327 ft 443 kts 197°
2026-04-15 12:04 64.56889 12.53919 36331 ft 444 kts 197°
2026-04-15 12:05 64.50928 12.50175 36323 ft 444 kts 198°
2026-04-15 12:05 64.44951 12.46437 36328 ft 445 kts 197°
2026-04-15 12:06 64.38968 12.42713 36319 ft 445 kts 197°
2026-04-15 12:06 64.32987 12.39006 36311 ft 445 kts 197°
2026-04-15 12:07 64.27036 12.35335 36267 ft 445 kts 197°
2026-04-15 12:07 64.21052 12.31660 36227 ft 445 kts 197°
2026-04-15 12:08 64.15063 12.27998 36202 ft 445 kts 197°
2026-04-15 12:08 64.09072 12.24351 36184 ft 445 kts 197°
2026-04-15 12:09 64.03084 12.20722 36184 ft 445 kts 197°
2026-04-15 12:09 63.97099 12.17111 36322 ft 445 kts 197°
2026-04-15 12:10 63.90964 12.15326 36333 ft 448 kts 182°
2026-04-15 12:10 63.84726 12.15432 36307 ft 448 kts 181°
2026-04-15 12:11 63.78486 12.15531 36322 ft 448 kts 182°
2026-04-15 12:11 63.72245 12.15544 36314 ft 449 kts 182°
2026-04-15 12:12 63.65999 12.15512 36330 ft 449 kts 182°
2026-04-15 12:12 63.59736 12.15468 36330 ft 450 kts 182°
2026-04-15 12:13 63.53473 12.15427 36320 ft 451 kts 183°
2026-04-15 12:13 63.47201 12.15387 36334 ft 451 kts 182°
2026-04-15 12:14 63.40915 12.15348 36323 ft 452 kts 182°
2026-04-15 12:14 63.34635 12.15310 36331 ft 452 kts 182°
2026-04-15 12:15 63.28346 12.15272 36325 ft 452 kts 182°
2026-04-15 12:15 63.22053 12.15234 36317 ft 452 kts 182°
2026-04-15 12:16 63.15765 12.15196 36333 ft 452 kts 182°
2026-04-15 12:16 63.09473 12.15158 36348 ft 452 kts 182°
2026-04-15 12:17 63.03227 12.15121 36333 ft 451 kts 182°
2026-04-15 12:17 62.96949 12.15084 36332 ft 451 kts 182°
2026-04-15 12:18 62.90683 12.15046 36331 ft 450 kts 182°
2026-04-15 12:18 62.84433 12.15009 36344 ft 449 kts 182°
2026-04-15 12:19 62.78185 12.14973 36337 ft 449 kts 182°
2026-04-15 12:19 62.71940 12.14935 36339 ft 448 kts 182°
2026-04-15 12:20 62.65709 12.14899 36337 ft 448 kts 182°
2026-04-15 12:20 62.59465 12.14862 36333 ft 448 kts 182°
2026-04-15 12:21 62.53227 12.14826 36343 ft 448 kts 181°
2026-04-15 12:21 62.46985 12.14790 36339 ft 449 kts 181°
2026-04-15 12:22 62.40728 12.14754 36344 ft 450 kts 181°
2026-04-15 12:22 62.34466 12.14718 36343 ft 450 kts 181°
2026-04-15 12:23 62.28201 12.14682 36330 ft 451 kts 182°
2026-04-15 12:23 62.21924 12.14647 36338 ft 451 kts 182°
2026-04-15 12:24 62.15640 12.14611 36342 ft 452 kts 181°
2026-04-15 12:24 62.09340 12.14576 36340 ft 453 kts 182°
2026-04-15 12:25 62.03025 12.14540 36339 ft 454 kts 182°
2026-04-15 12:25 61.96723 12.14506 36095 ft 451 kts 181°
2026-04-15 12:25 61.93607 12.14490 35801 ft 443 kts 181°
2026-04-15 12:26 61.90539 12.14474 35391 ft 440 kts 182°
2026-04-15 12:26 61.87493 12.14458 35017 ft 436 kts 182°
2026-04-15 12:26 61.84476 12.14441 34633 ft 433 kts 182°
2026-04-15 12:26 61.81478 12.14425 34234 ft 430 kts 182°
2026-04-15 12:27 61.78499 12.14408 33779 ft 426 kts 182°
2026-04-15 12:27 61.75542 12.14392 33364 ft 423 kts 182°
2026-04-15 12:27 61.72613 12.14376 32980 ft 418 kts 182°
2026-04-15 12:27 61.69720 12.14361 32599 ft 414 kts 182°
2026-04-15 12:28 61.66850 12.14345 32210 ft 411 kts 182°
2026-04-15 12:28 61.64003 12.14329 31838 ft 407 kts 181°
2026-04-15 12:28 61.61180 12.14313 31468 ft 404 kts 181°
2026-04-15 12:28 61.58421 12.14298 31115 ft 400 kts 181°
2026-04-15 12:29 61.55612 12.14282 30752 ft 397 kts 181°
2026-04-15 12:29 61.52860 12.14267 30396 ft 394 kts 182°
2026-04-15 12:29 61.51048 12.14257 30122 ft 391 kts 181°
2026-04-15 12:29 61.48343 12.14242 29733 ft 387 kts 182°
2026-04-15 12:30 61.44797 12.14223 29241 ft 382 kts 181°
2026-04-15 12:30 61.42154 12.14209 28874 ft 378 kts 181°
2026-04-15 12:30 61.39536 12.14195 28506 ft 374 kts 181°
2026-04-15 12:30 61.36946 12.14181 28123 ft 371 kts 181°
2026-04-15 12:31 61.35200 12.14171 27864 ft 370 kts 181°
2026-04-15 12:31 61.32641 12.14157 27511 ft 367 kts 181°
2026-04-15 12:31 61.30096 12.14143 27157 ft 364 kts 181°
2026-04-15 12:31 61.27569 12.14129 26800 ft 362 kts 181°
2026-04-15 12:32 61.25061 12.14116 26462 ft 359 kts 181°
2026-04-15 12:32 61.22567 12.14103 26115 ft 357 kts 181°
2026-04-15 12:32 61.20094 12.14089 25768 ft 355 kts 181°
2026-04-15 12:32 61.17625 12.14076 25433 ft 354 kts 181°
2026-04-15 12:33 61.15169 12.14063 25085 ft 353 kts 181°
2026-04-15 12:33 61.12713 12.14050 24737 ft 354 kts 181°
2026-04-15 12:33 61.10249 12.14036 24400 ft 354 kts 180°
2026-04-15 12:33 61.07773 12.14023 24052 ft 359 kts 181°
2026-04-15 12:34 61.05278 12.14009 23664 ft 364 kts 180°
2026-04-15 12:34 61.02715 12.13996 23247 ft 363 kts 180°
2026-04-15 12:34 61.00230 12.13983 22875 ft 361 kts 181°
2026-04-15 12:34 60.97726 12.13971 22519 ft 358 kts 180°
2026-04-15 12:35 60.95241 12.13958 22163 ft 356 kts 181°
2026-04-15 12:35 60.92775 12.13945 21814 ft 354 kts 181°
2026-04-15 12:35 60.90318 12.13933 21466 ft 352 kts 180°
2026-04-15 12:35 60.87879 12.13920 21122 ft 350 kts 181°
2026-04-15 12:36 60.85453 12.13907 20782 ft 348 kts 180°
2026-04-15 12:36 60.83043 12.13894 20452 ft 345 kts 180°
2026-04-15 12:36 60.80648 12.13882 20111 ft 344 kts 180°
2026-04-15 12:36 60.78263 12.13862 19767 ft 342 kts 182°
2026-04-15 12:37 60.75951 12.12924 19378 ft 340 kts 205°
2026-04-15 12:37 60.73867 12.10622 18937 ft 341 kts 212°
2026-04-15 12:37 60.71844 12.08087 18573 ft 341 kts 213°
2026-04-15 12:37 60.69839 12.05519 18186 ft 339 kts 213°
2026-04-15 12:38 60.67841 12.02961 17821 ft 337 kts 213°
2026-04-15 12:38 60.65860 12.00441 17487 ft 335 kts 213°
2026-04-15 12:38 60.63889 11.97954 17147 ft 332 kts 212°
2026-04-15 12:38 60.61930 11.95497 16831 ft 330 kts 212°
2026-04-15 12:39 60.59982 11.93066 16524 ft 327 kts 212°
2026-04-15 12:39 60.58048 11.90661 16194 ft 325 kts 211°
2026-04-15 12:39 60.56129 11.88281 15871 ft 322 kts 211°
2026-04-15 12:39 60.54218 11.85916 15551 ft 320 kts 211°
2026-04-15 12:40 60.52327 11.83579 15240 ft 317 kts 211°
2026-04-15 12:40 60.50449 11.81263 14922 ft 315 kts 211°
2026-04-15 12:40 60.48581 11.78964 14605 ft 313 kts 211°
2026-04-15 12:40 60.46728 11.76685 14302 ft 311 kts 211°
2026-04-15 12:41 60.44884 11.74421 13977 ft 309 kts 211°
2026-04-15 12:41 60.43050 11.72171 13638 ft 307 kts 211°
2026-04-15 12:41 60.41232 11.69943 13323 ft 304 kts 210°
2026-04-15 12:41 60.39430 11.67739 13012 ft 301 kts 210°
2026-04-15 12:42 60.37642 11.65554 12711 ft 299 kts 209°
2026-04-15 12:42 60.35867 11.63388 12392 ft 297 kts 208°
2026-04-15 12:42 60.34107 11.61242 12097 ft 294 kts 208°
2026-04-15 12:42 60.32360 11.59117 11809 ft 293 kts 208°
2026-04-15 12:43 60.30621 11.57005 11512 ft 291 kts 208°
2026-04-15 12:43 60.28886 11.54900 11205 ft 290 kts 208°
2026-04-15 12:43 60.27166 11.52814 10909 ft 288 kts 207°
2026-04-15 12:43 60.25460 11.50749 10621 ft 285 kts 207°
2026-04-15 12:44 60.23767 11.48702 10419 ft 281 kts 207°
2026-04-15 12:44 60.22115 11.46705 10294 ft 274 kts 207°
2026-04-15 12:44 60.20486 11.44738 10006 ft 273 kts 207°
2026-04-15 12:44 60.18861 11.42781 9721 ft 271 kts 207°
2026-04-15 12:45 60.17248 11.40842 9450 ft 270 kts 207°
2026-04-15 12:45 60.15667 11.38941 9194 ft 267 kts 207°
2026-04-15 12:45 60.14075 11.37030 8921 ft 266 kts 207°
2026-04-15 12:45 60.12496 11.35137 8659 ft 264 kts 207°
2026-04-15 12:46 60.10925 11.33255 8395 ft 262 kts 207°
2026-04-15 12:46 60.09363 11.31386 8119 ft 261 kts 207°
2026-04-15 12:46 60.07806 11.29524 7837 ft 261 kts 207°
2026-04-15 12:46 60.06251 11.27668 7553 ft 260 kts 207°
2026-04-15 12:47 60.04702 11.25819 7286 ft 259 kts 207°
2026-04-15 12:47 60.03154 11.23975 6996 ft 259 kts 207°
2026-04-15 12:47 60.01610 11.22135 6703 ft 259 kts 207°
2026-04-15 12:47 60.00063 11.20297 6419 ft 258 kts 207°
2026-04-15 12:48 59.98520 11.18465 6174 ft 257 kts 207°
2026-04-15 12:48 59.97004 11.16666 6061 ft 250 kts 207°
2026-04-15 12:48 59.95544 11.14859 5931 ft 245 kts 216°
2026-04-15 12:48 59.94566 11.12166 5853 ft 240 kts 251°
2026-04-15 12:49 59.94428 11.08903 5599 ft 240 kts 281°
2026-04-15 12:49 59.95088 11.05834 5226 ft 243 kts 307°
2026-04-15 12:49 59.96175 11.03260 4963 ft 243 kts 314°
2026-04-15 12:49 59.97323 11.00783 4701 ft 243 kts 314°
2026-04-15 12:50 59.98488 10.98335 4442 ft 243 kts 320°
2026-04-15 12:50 59.99981 10.96931 4145 ft 237 kts 359°
2026-04-15 12:50 60.01537 10.97508 3998 ft 225 kts 22°
2026-04-15 12:50 60.03003 10.98436 3860 ft 214 kts 18°
2026-04-15 12:51 60.04409 10.99231 3616 ft 205 kts 19°
2026-04-15 12:51 60.05738 10.99991 3358 ft 191 kts 19°
2026-04-15 12:51 60.06968 11.00701 3121 ft 180 kts 19°
2026-04-15 12:51 60.08155 11.01390 2854 ft 175 kts 19°
2026-04-15 12:52 60.09315 11.02062 2629 ft 175 kts 19°
2026-04-15 12:52 60.10485 11.02740 2386 ft 175 kts 19°
2026-04-15 12:52 60.11622 11.03395 2129 ft 164 kts 19°
2026-04-15 12:52 60.12677 11.04006 1928 ft 156 kts 19°
2026-04-15 12:53 60.13710 11.04605 1709 ft 153 kts 19°
2026-04-15 12:53 60.14748 11.05204 1480 ft 154 kts 19°
2026-04-15 12:53 60.15743 11.05779 1250 ft 148 kts 18°
2026-04-15 12:53 60.16733 11.06360 1028 ft 148 kts 17°
2026-04-15 12:54 60.17713 11.06924 846 ft 147 kts 16°
2026-04-15 12:54 60.18687 11.07486 684 ft 144 kts 17°
2026-04-15 12:54 60.19520 11.07967 671 ft 96 kts 15°
2026-04-15 12:54 60.19919 11.08220 672 ft 23 kts 54°
2026-04-15 12:55 60.19887 11.08500 674 ft 21 kts 107°
2026-04-15 12:55 60.19846 11.08773 677 ft 20 kts 106°
2026-04-15 12:55 60.19808 11.09042 680 ft 20 kts 105°
2026-04-15 12:55 60.19771 11.09304 682 ft 20 kts 106°
2026-04-15 12:56 60.19729 11.09588 682 ft 22 kts 106°
2026-04-15 12:56 60.19684 11.09879 684 ft 21 kts 105°
2026-04-15 12:56 60.19671 11.09977 684 ft 0 kts 107°